Regional Weather Roundup
Issued by NWS

Home | Current Version | Previous Version | Text Only | Print | Product List | Glossary Off
Versions: 1 2 3 4 5 6 7 8 9 10 11 12 13 14 15 16 17 18 19 20 21 22 23 24 25 26 27 28 29 30 31 32 33 34 35 36 37 38 39 40 41 42 43 44 45 46 47 48 49 50

000
ASUS43 KOAX 290610
RWRNE

WEATHER ROUNDUP FOR NEBRASKA
NATIONAL WEATHER SERVICE OMAHA NE
100 AM CDT FRI APR 29 2016

NOTES: SATELLITE DATA IS BEING USED TO AUGMENT CLOUD COVER ABOVE
       12000 FEET.
       "FAIR" INDICATES FEW OR NO CLOUDS BELOW 12,000 FEET WITH NO
       SIGNIFICANT WEATHER AND/OR OBSTRUCTIONS TO VISIBILITY.

  * THESE STATIONS DO NOT REPORT WEATHER SUCH AS RAIN...SNOW OR FOG.

NEZ001>004-019>022-054>056-290700-
NEBRASKA PANHANDLE

CITY           SKY/WX    TMP DP  RH WIND       PRES   REMARKS
SCOTTSBLUFF    CLOUDY    35  32  88 CALM      30.10R
6HR MIN TEMP:  35; 6HR MAX TEMP:  38; 6HR PCP: TRACE;

ALLIANCE       CLOUDY    33  33 100 NE5       30.09R WCI  29
6HR MIN TEMP:  32; 6HR MAX TEMP:  35; 6HR PCP:  0.08;

CHADRON        CLOUDY    38  36  92 NE9       30.12S WCI  31
6HR MIN TEMP:  38; 6HR MAX TEMP:  42; 6HR PCP:  0.04;

KIMBALL        CLOUDY    34  33  97 CALM      30.07R
SIDNEY         CLOUDY    35  33  92 NE9       30.09R WCI  28
6HR MIN TEMP:  35; 6HR MAX TEMP:  41;

$$

NEZ057>060-069>072-079>082-290700-
SOUTHWEST NEBRASKA

CITY           SKY/WX    TMP DP  RH WIND       PRES   REMARKS
NORTH PLATTE   CLOUDY    42  38  85 NE7       30.11S
6HR MIN TEMP:  41; 6HR MAX TEMP:  46;

IMPERIAL       CLOUDY    43  39  86 E7        30.11R
6HR MIN TEMP:  43; 6HR MAX TEMP:  46;

LEXINGTON      CLOUDY    44  41  89 E3        30.12S
MCCOOK         CLOUDY    44  39  82 NE6       30.11R
6HR MIN TEMP:  44; 6HR MAX TEMP:  49;

OGALLALA       CLOUDY    41  36  80 NE6       30.11S
$$

NEZ005>010-023>029-035>040-094-290700-
NORTH CENTRAL NEBRASKA

CITY           SKY/WX    TMP DP  RH WIND       PRES   REMARKS
VALENTINE      CLOUDY    39  36  89 NW5       30.13F
6HR MIN TEMP:  39; 6HR MAX TEMP:  41; 6HR PCP:  0.02;

AINSWORTH      CLOUDY    39  39  98 NW3       30.14R FOG
O`NEILL        CLOUDY    41  39  93 CALM      30.14R
ORD            CLOUDY    41  38  89 NW5       30.12S
6HR MIN TEMP:  41; 6HR MAX TEMP:  45;

THEDFORD       CLOUDY    40  37  91 N3        30.13F
$$

NEZ041-046>049-061>064-073>077-083>087-290700-
SOUTH CENTRAL NEBRASKA

CITY           SKY/WX    TMP DP  RH WIND       PRES   REMARKS
GRAND ISLAND   CLOUDY    43  39  86 N5        30.14R
6HR MIN TEMP:  43; 6HR MAX TEMP:  48;

AURORA         CLOUDY    44  41  89 CALM      30.13F
HASTINGS       CLOUDY    44  39  82 NE7       30.13S
6HR MIN TEMP:  44; 6HR MAX TEMP:  49;

HEBRON         CLOUDY    47  42  82 N9        30.12S
HOLDREGE       CLOUDY    44  40  87 E5        30.12S
KEARNEY *      CLOUDY    45  39  81 NE8       30.13R
YORK           CLOUDY    45  39  81 N3        30.14S
$$

NEZ011>018-030>034-042>045-290700-
NORTHEAST NEBRASKA

CITY           SKY/WX    TMP DP  RH WIND       PRES   REMARKS
NORFOLK        CLOUDY    42  38  85 N5        30.13R
6HR MIN TEMP:  42; 6HR MAX TEMP:  45;

ALBION         CLOUDY    42  38  87 CALM      30.13S
BLAIR          CLOUDY    45  41  88 NW3       30.13R
COLUMBUS *     CLOUDY    45  34  65 NW5       30.15R
FREMONT        CLOUDY    44  40  86 CALM      30.15R
TEKAMAH        CLOUDY    44  41  89 N7        30.14R
6HR MIN TEMP:  44; 6HR MAX TEMP:  47;

WAYNE          DRIZZLE   42  41  95 CALM      30.14S
$$

NEZ050>053-065>068-078-088>093-290700-
SOUTHEAST NEBRASKA

CITY           SKY/WX    TMP DP  RH WIND       PRES   REMARKS
LINCOLN        CLOUDY    47  42  83 N8        30.14R
6HR MIN TEMP:  47; 6HR MAX TEMP:  51;

OMAHA EPPLEY   CLOUDY    46  41  82 NW3       30.14R
6HR MIN TEMP:  46; 6HR MAX TEMP:  50;

BEATRICE       CLOUDY    47  43  84 N9        30.11F
FALLS CITY     CLOUDY    49  42  77 NW6       30.10S
6HR MIN TEMP:  49; 6HR MAX TEMP:  53;

NEBRASKA CITY  CLOUDY    47  42  83 N5        30.12S
PLATTSMOUTH    CLOUDY    46  42  86 NW5       30.13R
$$

NEZ044-045-051>053-067-290700-
OMAHA AREA

CITY           SKY/WX    TMP DP  RH WIND       PRES   REMARKS
OMAHA EPPLEY   CLOUDY    46  41  82 NW3       30.14R
6HR MIN TEMP:  46; 6HR MAX TEMP:  50;

BLAIR          CLOUDY    45  41  88 NW3       30.13R
FREMONT        CLOUDY    44  40  86 CALM      30.15R
MILLARD        CLOUDY    46  40  80 NW3       30.14R
OFFUTT AFB     CLOUDY    46  40  81 N5        30.12R
PLATTSMOUTH    CLOUDY    46  42  86 NW5       30.13R
WAHOO          CLOUDY    46  42  85 NW5       30.14R
$$



USA.gov is the U.S. government's official web portal to all federal, state and local government web resources and services.